STARLINK-2725, 48681

Orbit data source: Space-Track

STARLINK-2725, 48681 is a payload satellite owned by SpaceX/Seattle (US) in LEO that was launched on Wed, 26 May 2021 UTC via an FALCON 9 launch vehicle from the Air Force Eastern Test Range (AFETR). Payload-class satellites include a variety of spacecraft equipped with specific instruments for various scientific and technological missions. These include communications satellites like Starlink; space stations such as the ISS; scientific satellites like the Hubble; Earth observation satellites from companies like Planet Labs, Umbra, and HawkEye 360; GPS; miniature CubeSats for education and research; and military/defense satellites.

Loading next visibility...
Identifier
48681, 2021-044AV
Orbit
LEO
Country
Flag of USUS
Related business
Manufacturer
SpaceX/Seattle
Mission
Operational Commercial Communications
Bus & Motor
STARLINK, Unknown motor
Mass
260 kg wet, ~248 kg dry
Launch date (UTC)
2021-05-26 (5 years ago)
Launch vehicle
FALCON 9
Launch site
Air Force Eastern Test Range (AFETR)
Object type
Payload
Rocket body
Debris
Shape & HBR
Box + 1 Pan, 10.1 m
Radar Cross Section
13.562 m², Large (>1 m²)

Expand to show TLE details & history
Last TLE update: 2 days ago

TLE from 2 days ago
0 STARLINK-2725
1 48681U 21044AV  26171.42100072  .00002570  00000-0  94522-4 0  9991
2 48681  53.1600 317.6940 0001216  85.3751 274.7389 15.31706733280098
Epoch: 2026-06-20T10:06Z
TLE epoch observation values (Epoch: 2026-06-20T10:06:14.462Z)
Latitude
-0.00003°
Longitude
-102.50215°
Altitude
471.552 km
Speed
7.632 km/s
True Right ascension
21h 10m 46s
True Declination
0° 00' 00"
Sunlit
Object was in full shadow at epoch
Visualization orbit readout
Latitude
Unknown
Longitude
Unknown
Altitude
Unknown
Speed
Unknown
Apparent Right ascension
Unknown
Apparent Declination
Unknown
Sunlit
N/A
Visualization observer readout
Local Sidereal Time
21:42:40
Azimuth
Unknown
Elevation
Unknown
Doppler factor
Unknown
Orbital elements
Apogee altitude
471.809 km
Perigee altitude
470.144 km
Semi-major axis
6,849.114 km
Eccentricity
0.00012
Inclination
53.16°
RAAN
317.694°
Arg. of periapsis
85.3751°
True anomaly
274.72501°
Mean anomaly
274.7389°
Eccentric anomaly
274.73196°
Mean motion
3.82906 °/min
Orbital period
94.02 mins
BSTAR
0.000094522
Loading maneuver chart data...
Computing Atmospheric mass density...

Documentation

Showing up to 5 results
|